Other Surface Observations
Issued by NWS

Home | Current Version | Previous Version | Text Only | Print | Product List | Glossary On
Versions: 1 2 3 4 5 6 7 8 9 10 11 12 13 14 15 16 17 18 19 20 21 22 23 24 25 26 27 28 29 30 31 32 33 34 35 36 37 38 39 40 41 42 43 44 45 46 47 48 49 50
000
SXUS52 KTAE 230619
OSOTAE
OSOTAE
North Florida/South Alabama/Southwest Georgia Weather Roundup
National Weather Service Tallahassee Florida
200 AM EDT MON OCT 23 2017

Note: "fair" indicates few or no clouds below 12,000 feet with no
significant weather and/or obstructions to visibility.

!FLZ017-115-028-034-025-230700
...North Florida...

CITY           SKY/WX    TMP DP  RH WIND       PRES   REMARKS
TALLAHASSEE    MOCLDY    74  73  97 E6        30.01F
APALACHICOLA   LGT RAIN  78  75  90 S9        30.00S
PERRY          CLOUDY    74  72  92 SE3       30.04F
CROSS CITY     MOCLDY    75  72  89 E5        30.09S
JACKSONVILLE   CLOUDY    79  74  84 SE8       30.08F
$$

!FLZ112-006-005-002-011-230700
...Florida Panhandle...

CITY           SKY/WX    TMP DP  RH WIND       PRES   REMARKS
MARIANNA       CLOUDY    74  72  93 CALM      30.00F
BONIFAY        NOT AVBL
PANAMA CITY NW HVY RAIN  73  72  96 S12G17    29.98F FOG
TYNDALL AFB    CLOUDY    77  73  88 S9        29.98F
TYND DRONE APT LGT RAIN  77  73  88 S9        29.98F
DE FUNIAK SPR  RAIN      71  70  98 SE10      30.00F
EGLIN AFB      LGT RAIN  73  70  91 CALM      29.96F
DESTIN         LGT RAIN  77  70  79 S9        29.96F
HURLBURT       LGT RAIN  73  71  92 S6        29.95F
CRESTVIEW      LGT RAIN  71  70  96 VRB5      29.99F
PENSACOLA      CLOUDY    75  69  81 SE15      29.94F
$$

!ALZ063-066-230700
...South Alabama...

CITY           SKY/WX    TMP DP  RH WIND       PRES   REMARKS
DOTHAN         RAIN      72  71  97 CALM      30.04F FOG
OZARK CAIRNS   LGT RAIN  70  68  94 SE5       30.01F
FT RUCKER HELI RAIN      70  68  94 CALM      30.01F FOG
RUCKER HELI 3  RAIN      69  68  97 S5        30.01F FOG
RUCKER HELI 2  RAIN      70  68  94 CALM      30.00F FOG
FLORALA APT    RAIN      70  68  93 SE6       30.01F FOG
ANDALUSIA      HVY RAIN  73  70  90 SE8       29.99S FOG
TROY           HVY RAIN  69  68  96 SE8       30.01F FOG
EUFALA         LGT RAIN  73  71  93 SE5       30.01F
MOBILE         CLOUDY    68  67  96 CALM      29.99F FOG
$$

!GAZ120>161-230700
...Southwest and South Central Georgia...

CITY           SKY/WX    TMP DP  RH WIND       PRES   REMARKS
THOMASVILLE    MOCLDY    73  73 100 SE9       30.05F
BAINBRIDGE     CLOUDY    75  73  94 E5        30.02F
MOODY AFB      CLOUDY    74  72  95 SE8       30.04F
VALDOSTA       LGT RAIN  73  73 100 S5        30.05S
MOULTRIE       MOCLDY    73  72  94 CALM      30.05S
BLAKELY        CLOUDY    73  70  88 E3        30.02F
ALBANY         HVY RAIN  74  74 100 SE14      30.05S VSB 1
TIFTON         CLOUDY   N/A N/A N/A SE5       30.05F
FITZGERALD     CLOUDY    74  73  99 SE3       30.08F
CORDELE        MOCLDY    75  73  91 E5        30.06F
AMERICUS       CLOUDY    70  70 100 E6        30.06F
HOMERVILLE     LGT RAIN  73  72  94 SE5       30.07F
$$

!GMZ750-755-770-775-230700
...Coastal and Buoy Obs...

STATION/POSITION TIME  TEMP    WIND        PRES    VSBY  WAVE
                       AIR SEA DIR/SP/G                  HT/PER
                 (UTC) (F)     (DEG/KT/KT) (MB)    (MI)  (FT/S)
KEATON BEACH     0600   75      90/  6/  7 1016.6F
CEDAR KEY        0600   78     150/ 13/ 14 1017.6F
C TOWER          0600   79     200/ 17/ 18 1016.3R
APALACHICOLA BUO 0550   80 80  180/ 14/ 16 1015.7F         4/ 7
PANAMA CITY BUOY 0550   78 81  170/ 16/ 19 1014.6F         8/ 8
MOBILE BUOY      0600   79 81  130/  4/  8 1014.3
ORANGE BCH AL BU 0550      79  290/ 17/ 19 1012.9F         5/ 7
$$




USA.gov is the U.S. government's official web portal to all federal, state and local government web resources and services.